Location: 3 Angels Observatory
(30.5437°N, 88.5068°W)
Time: 03:02:59
(UTC-05:00)

Daily predictions for brighter satellites

Satellite Brightness Start Highest point End
(mag) Time Altitude Azimuth Time Altitude Azimuth Time Altitude Azimuth
ATLAS 2AS CENTAUR R/B 4.4 01:20:13 32° NNW 01:20:13 32° NNW 01:25:05 10° NNE
SL-16 R/B 3.5 02:51:39 41° ENE 02:51:39 41° ENE 02:57:09 10° N
ARIANE 5 R/B 4.4 02:47:10 10° NNE 02:49:48 27° NE 02:49:48 27° NE
ADEOS Rocket 3.7 02:54:52 10° NNE 03:00:02 54° ENE 03:00:02 54° ENE
Lacrosse 5 rocket 3.1 03:41:40 31° N 03:41:40 31° N 03:44:29 10° NNE
Cosmos 1624 Rocket 4.1 03:44:33 10° NNW 03:49:36 73° NE 03:49:36 73° NE
MOS 1 Rocket 3.9 03:45:37 10° NNE 03:49:35 48° E 03:49:35 48° E
Resurs 1-4 Rocket 3.1 03:46:09 10° N 03:49:36 35° NNW 03:49:36 35° NNW
Cosmos-2242 4.2 03:50:20 10° N 03:54:29 41° E 03:55:20 37° ESE
Meteor 2-5 Rocket 4.5 03:52:45 34° SE 03:54:50 49° E 04:00:22 10° NNE
CZ-2D R/B 3.2 03:56:47 10° N 04:00:15 31° NW 04:00:15 31° NW
Cosmos 921 Rocket 3.4 03:58:31 10° N 04:02:19 61° N 04:02:19 61° N
Cosmos 2056 Rocket 3.3 03:57:53 10° NNW 04:03:12 88° WSW 04:03:28 81° S
Cosmos 2082 Rocket 2.7 04:08:27 34° SSE 04:10:39 55° ESE 04:16:12 10° NNE
Cosmos 1727 Rocket 3.8 04:10:06 51° SSW 04:11:45 80° W 04:17:57 10° N
Cosmos 1833 Rocket 3.4 04:09:32 31° SSE 04:11:55 50° ESE 04:17:18 10° NNE
COSMOS 2455 3.9 04:09:06 10° NW 04:12:08 28° WNW 04:12:08 28° WNW
Meteor 2-15 4.3 04:14:16 41° S 04:16:35 87° W 04:22:45 10° N
MOZ.5/SAFIR/RUBIN 5/SL-8 3.6 04:19:03 71° WSW 04:19:09 72° WSW 04:23:49 10° NNW
Meteor 2-15 Rocket 4.4 04:21:54 31° S 04:25:06 89° W 04:31:17 10° N
CZ-4B R/B 4.1 04:20:51 10° NNE 04:25:56 44° E 04:30:49 11° S
Landsat 4 3.9 04:24:55 37° SE 04:26:14 66° ENE 04:29:56 10° N
Cosmos 1707 3.4 04:27:49 41° NW 04:27:49 41° NW 04:30:43 10° N
Cosmos 1153 Rocket 4.4 04:21:12 10° N 04:27:21 85° E 04:33:30 10° S
ARIANE 5 R/B 4.3 04:27:22 10° NNW 04:30:09 18° WNW 04:30:09 18° WNW
SL-16 R/B 3.8 04:36:44 21° WNW 04:36:44 21° WNW 04:39:55 10° NW
Meteor 1-16 Rocket 4.3 04:32:34 10° N 04:37:55 72° E 04:43:10 10° SSE
Cosmos 1452 Rocket 3.6 04:32:59 10° NNW 04:38:15 76° ENE 04:43:29 10° SSE
USA 267 3.3 04:32:44 10° SSE 04:39:04 54° SW 04:45:28 10° NW
Cosmos 1470 3.5 04:36:18 10° NNW 04:39:06 35° WNW 04:39:06 35° WNW
COSMOS 2487 3.7 04:43:51 27° NW 04:43:51 27° NW 04:46:20 10° N
Cosmos 1378 3.5 04:46:11 42° W 04:46:11 42° W 04:49:44 10° N
IRS-1C Rocket 4.2 04:42:37 10° NNE 04:47:54 80° E 04:52:47 12° S
GPS 2-05 Rocket1 3.0 04:47:25 49° WNW 04:48:08 65° NNW 04:51:35 10° ENE
Intercosmos 25 3.9 04:42:41 10° NNW 04:48:56 63° W 04:51:40 21° SSW
BREEZE-M DEB (TANK) 4.2 04:42:39 22° SW 04:49:22 69° SE 04:53:19 10° ENE
CENTAUR R/B 3.1 04:41:28 10° NW 04:49:36 72° WSW 04:57:58 10° SSE
Intelsat 5-3 Rocket 3.2 04:51:19 29° SSW 04:51:28 29° SSW 04:54:02 10° SE
Cosmos 1459 Rocket 4.1 04:45:46 10° N 04:51:57 76° E 04:58:12 10° S
Okean O Rocket 1.5 04:48:33 10° N 04:52:58 71° WNW 04:55:38 23° SSW
Cosmos 1048 Rocket 3.9 04:52:01 26° SSW 04:54:53 64° WNW 04:59:58 10° N
Cosmos 1420 Rocket 4.4 04:49:41 10° N 04:54:59 69° ENE 05:00:13 10° SSE
ADEOS II 2.0 04:52:00 10° N 04:57:15 73° WNW 05:01:46 14° SSW
Meteor 1-24 Rocket 3.6 04:53:38 16° SSW 04:58:00 71° W 05:03:35 10° N
Timation 2 Rocket 4.1 04:52:27 15° SSW 04:58:15 89° W 05:04:49 10° NNE
In-Cosmos 22 4.2 04:54:22 10° S 04:59:42 76° E 05:04:59 10° NNE
Geosat FO 4.5 04:59:28 10° SSE 05:03:02 81° WSW 05:06:40 10° NNW
Tiangong 1 3.6 05:05:43 10° NNW 05:07:48 18° NNE 05:09:52 10° ENE
Cosmos 1269 Rocket 4.3 05:04:31 21° SW 05:07:49 48° WNW 05:12:54 10° N
Cosmos 1076 Rocket 4.3 05:05:11 10° S 05:09:17 52° E 05:13:24 10° NNE
IUS-18 SRM-1 1.6 05:14:09 31° SW 05:14:37 37° S 05:16:46 10° ESE
SL-24 R/B 4.1 05:12:04 10° N 05:16:34 66° WNW 05:20:43 10° SSW
Meteor 2-17 Rocket 4.4 05:18:37 10° NNW 05:24:37 69° W 05:30:37 10° S
Delta 2 Rocket 3.8 05:23:07 10° WNW 05:26:20 42° NNE 05:29:36 10° E
Cosmos 2251 Rocket 3.9 05:21:59 10° S 05:27:11 66° ESE 05:32:27 10° NNE
Cosmos 1697 Rocket 2.9 05:22:57 10° NNW 05:28:35 76° ENE 05:34:10 10° SSE
Cosmos 2100 Rocket 4.2 05:22:59 10° NNW 05:28:49 46° W 05:34:36 10° SSW
Cosmos 1842 Rocket 4.4 05:26:49 10° NNW 05:30:40 30° W 05:34:32 10° SSW
CZ-4B R/B 4.4 05:27:58 10° NNW 05:31:27 24° WNW 05:34:49 11° WSW
EO 1 Del DPAF 3.3 05:27:48 10° S 05:31:35 56° W 05:35:23 10° NNW
MTI 3.9 05:28:55 10° S 05:32:04 51° W 05:35:14 10° NNW
Cosmos 2278 4.1 05:27:34 10° NW 05:32:54 42° WSW 05:38:12 10° S
Cosmos 2173 Rocket 4.3 05:30:08 10° NNW 05:36:01 44° W 05:41:47 10° SSW
IRAS Rocket 4.5 05:31:09 10° N 05:36:38 55° WNW 05:42:06 10° SSW
Cosmos 1340 Rocket 3.0 05:32:59 10° S 05:37:00 76° E 05:40:59 10° N
Cosmos 1184 Rocket 3.7 05:35:49 10° S 05:39:06 53° E 05:42:23 10° NNE
Cosmos 2369 4.2 05:35:12 10° NW 05:40:24 36° WSW 05:45:34 10° SSW
Cosmos 1674 2.8 05:45:06 10° SSW 05:48:46 55° W 05:52:31 10° N
Meteor 1-21 Rocket 4.3 05:44:30 10° SSW 05:50:13 70° W 05:56:04 10° N
USA 116 4.5 05:45:15 10° S 05:50:38 79° WSW 05:55:53 10° NNW
CZ-4B R/B 4.1 05:47:01 10° N 05:50:48 48° WNW 05:54:27 10° SSW
